Etusivu
METAR-TAF:

METAR-TAF

Lentoasemat :

Maple Lake Municipal Airport

Maple Lake, Minnesota, Yhdysvallat

Leveyspiiri: 45-14-10N, Pituuspiiri: 093-59-08W, korkeus merenpinnasta: 313 m

Tämänhetkinen sää

Tämä raportti tehtiin 13 minuuttia sitten, kello 02.16 UTC
tyyntä
Lämpötila 2°C
Kosteus 93%
Ilmanpaine 1006 hPa
Näkyvyys: 16.1 km

METAR: KMGG 190216Z AUTO 00000KT 10SM 02/01 A2970 RMK AO2 T00180005

Aika: 20:29 (02:29 UTC)


TAF: puuttuu

Säähavainnot ja -ennusteet yli 4000 lentoasemalta (METAR- ja TAF-raportit).

Käytössä olevat sääasemat on merkitty karttaan keltaisilla ja punaisilla pisteillä.

Aseta hiiri pisteen päälle nähdäksesi sääaseman nimen.

Klikkaa sitten nähdäksesi säähavainnot ja -ennusteet.

Kartan vaihtaminen: klikkaa mustalla rastilla varustettuja vihreitä pisteitä, niin voit zoomata sisään; viivalla varustettua vihreää pistettä, niin voit zoomata ulos tai vihreitä nuolia, niin pääset viereisille kartoille.


METAR-TAF: